Location: Arcones
(41.1182°N, 3.7238°W)
Time: 23:02:30
(UTC+00:00)

Cosmos 2263 Rocket - Pass Details

Date: 19 March 2026
Orbit: 823 x 847 km, 71.0° (Epoch: 13 April)

Event Time Altitude Azimuth Distance (km) Brightness Sun altitude
Rises 22:39:42 0° 333° (NNW) 3,392 6.1 -43.0°
Reaches altitude 10° 22:42:09 10° 332° (NNW) 2,450 5.2 -43.3°
Enters shadow 22:43:14 16° 330° (NNW) 2,048 4.7 -43.4°
